SCP
1 1 1 1 0 0 0 0 0 0 0 0 0 0 1 0 0 0 0 0 0 0 0 0 0 0 0 0 0 0 0 0 0 0 0 0 0 0
1 1 1 1 0 0 0 0 0 0 0 0 0 0 1 0 0 0 0 0 0 0 0 0 0 0 0 0 0 0 0 0 0 0 0 0 0 0
1 1 1 1 1 1 1 1 0 0 0 0 0 1 1 0 0 0 0 0 0 0 0 0 0 0 0 0 0 0 0 0 0 0 0 0 0 0
1 1 1 1 1 1 1 1 1 0 0 0 0 1 1 1 1 0 0 0 0 0 0 0 0 0 0 0 0 0 0 0 0 0 0 0 0 0
1 1 1 1 1 1 1 1 0 0 0 0 0 0 1 1 1 1 0 0 0 0 0 0 0 0 0 0 0 0 0 0 0 0 0 0 0 0
0 0 0 0 0 0 0 0 0 0 0 0 0 0 0 1 1 1 0 0 0 0 0 0 0 0 0 0 0 0 0 0 0 0 0 0 0 0
0 0 0 0 0 0 0 0 0 0 0 0 0 0 0 0 0 0 0 0 0 0 0 0 0 0 0 0 0 0 0 0 0 0 0 0 0 0
0 0 0 0 0 0 0 0 0 0 0 0 0 0 0 0 0 0 0 0 0 0 0 0 0 0 0 0 0 0 0 0 0 0 0 0 0 0
0 0 0 0 0 0 0 0 0 0 0 0 0 0 0 0 0 0 0 0 0 0 0 0 0 0 0 0 0 0 0 0 0 0 0 0 0 0
0 0 0 0 0 0 0 0 0 0 0 0 0 0 0 0 0 0 0 0 0 0 0 0 0 0 0 0 0 0 0 0 0 0 0 0 0 0
0 0 0 0 0 0 0 0 0 0 0 0 0 0 0 0 0 0 0 0 0 0 0 0 0 0 0 0 0 0 0 0 0 0 0 0 0 0
0 0 0 0 0 0 0 0 0 0 0 0 0 0 0 0 0 0 0 0 0 0 0 0 0 0 0 0 0 0 0 0 0 0 0 0 0 0
0 0 0 0 0 0 0 0 0 0 0 0 0 0 0 0 0 0 0 0 0 0 0 0 0 0 0 0 0 0 0 0 0 0 0 0 0 0
0 0 0 0 0 0 0 0 0 0 0 0 0 0 0 0 0 0 0 0 0 0 0 0 0 0 0 0 0 0 0 0 0 0 0 0 0 0
0 0 0 0 0 0 0 0 0 0 0 0 0 0 0 0 0 0 0 0 0 0 0 0 0 0 0 0 0 0 0 0 0 0 0 0 0 0
0 0 0 0 0 0 0 0 0 0 0 0 0 0 0 0 0 0 0 0 0 0 0 0 0 0 0 0 0 0 0 0 0 0 0 0 0 0
0 0 0 0 0 0 0 0 0 0 0 0 0 0 0 0 0 0 0 0 0 0 0 0 0 0 0 0 0 0 0 0 0 0 0 0 0 0
0 0 0 0 0 0 0 0 0 0 0 0 0 0 0 0 0 0 0 0 0 0 0 0 0 0 0 0 0 0 0 0 0 0 0 0 0 0
0 0 0 0 0 0 0 0 0 0 0 0 0 0 0 0 0 0 0 0 0 0 0 0 0 0 0 0 0 0 0 0 0 0 0 0 0 0
0 0 0 0 0 0 0 0 0 0 0 0 0 0 0 0 0 0 0 0 0 0 0 0 0 0 0 0 0 0 0 0 0 0 0 0 0 0
0 0 0 0 0 0 0 0 0 0 0 0 0 0 0 0 0 0 0 0 0 0 0 0 0 0 0 0 0 0 0 0 0 0 0 0 0 0
0 0 0 0 0 0 0 0 0 0 0 0 0 0 0 0 0 0 0 0 0 0 0 0 0 0 0 0 0 0 0 0 0 0 0 0 0 0
0 0 0 0 0 0 0 0 0 0 0 0 0 0 0 0 0 0 0 0 0 0 0 0 0 0 0 0 0 0 0 0 0 0 0 0 0 0
Wind_Speed
4 5 4 3 3 2 1 1 1 2 3 3 2 3 3 3 8 6 6 12 14 14 13 13 12 11 11 11 11 11 11 10 10 10 10 11 11 12
3 3 3 3 3 2 1 1 1 2 2 2 2 1 1 2 7 5 4 12 14 14 14 13 12 12 11 11 11 11 11 11 11 11 11 11 11 11
4 4 4 3 2 2 2 2 1 1 2 3 2 1 1 0 2 3 3 5 7 13 14 14 13 12 12 12 12 11 11 10 10 10 10 10 10 11
4 3 3 3 3 3 2 2 1 1 2 2 2 1 1 2 2 3 3 4 3 9 13 14 13 13 12 12 11 11 10 10 10 9 10 10 10 10
3 3 3 3 3 3 2 2 1 2 1 1 2 2 1 1 1 2 3 2 4 4 9 11 12 12 12 12 11 10 10 9 9 9 9 9 9 9
2 2 2 2 3 3 2 2 2 2 2 2 2 2 1 1 0 1 2 2 3 4 2 4 7 10 11 10 10 10 10 10 9 9 9 9 9 9
1 1 1 1 1 0 1 1 1 1 1 2 2 2 1 1 1 1 2 2 2 2 1 1 2 3 4 7 9 10 10 10 10 9 9 9 9 9
1 1 1 1 2 2 2 2 1 0 1 2 2 2 2 2 2 2 2 2 3 2 2 3 2 2 3 2 5 8 10 10 9 9 9 9 10 10
2 1 1 2 3 1 1 1 1 1 0 1 2 2 2 2 2 2 3 3 3 3 2 3 2 2 2 2 4 5 7 8 9 10 10 10 11 11
4 3 3 4 4 4 2 1 1 1 0 1 0 1 1 1 1 2 3 4 4 3 2 2 2 2 3 2 4 6 7 8 9 10 11 11 11 12
5 6 6 5 7 6 3 2 2 2 2 2 1 1 1 2 2 2 3 3 4 3 2 2 3 3 3 3 3 4 5 7 8 9 10 11 11 10
5 7 9 8 8 7 4 3 3 3 3 2 1 2 2 1 1 1 3 3 3 3 3 3 3 3 3 2 3 2 3 6 8 9 9 10 10 6
5 5 6 9 9 8 6 4 3 3 3 2 1 2 2 2 3 2 3 2 3 3 3 3 3 3 3 4 4 3 3 3 3 4 6 8 9 7
6 5 5 7 7 7 6 6 6 5 2 3 3 4 3 3 3 3 3 2 2 3 4 2 2 3 4 5 5 4 3 3 3 3 3 5 6 8
5 5 4 4 4 4 5 6 6 5 4 4 4 4 3 3 2 2 2 2 3 4 4 2 2 3 3 5 5 5 5 4 3 3 3 3 4 4
4 3 3 3 3 3 4 4 4 5 4 4 4 4 4 4 3 3 3 3 3 3 3 3 3 3 4 5 5 5 4 4 4 4 3 4 3 3
2 2 2 3 3 4 4 4 4 5 5 4 4 4 4 4 4 4 4 4 4 4 4 4 4 3 4 5 4 4 4 4 4 4 4 4 4 3
4 4 5 5 5 5 5 5 4 4 4 4 4 4 4 4 4 4 4 4 4 5 5 5 5 5 5 4 3 4 4 4 5 5 5 5 5 3
5 5 5 5 5 5 5 5 5 4 4 4 4 4 4 4 4 5 5 5 5 5 5 4 4 5 6 7 5 4 5 5 5 5 4 4 5 4
5 6 5 5 5 5 5 5 4 4 5 5 5 5 5 5 5 5 5 5 6 6 6 5 4 4 5 6 7 7 7 5 4 5 5 5 4 4
6 6 6 5 5 4 4 4 4 4 5 5 5 6 6 6 6 6 6 7 6 5 6 6 5 7 6 5 5 5 4 5 5 4 5 5 5 4
5 5 5 5 5 4 4 4 5 5 6 6 6 5 5 5 6 6 6 6 6 6 7 6 6 6 5 5 6 6 6 5 6 6 5 4 4 4
5 4 4 5 5 5 5 6 7 6 6 6 6 6 6 5 5 5 6 6 6 7 7 7 7 6 5 5 5 6 7 7 5 5 4 5 6 7
Wind_Direction
222 224 224 248 260 269 266 222 218 253 268 255 223 205 180 159 161 186 183 195 202 206 210 215 218 222 226 231 234 236 237 238 240 242 245 248 251 254
209 224 220 240 259 264 260 247 221 226 258 267 249 232 199 184 170 199 206 190 201 207 211 215 219 222 225 229 233 235 236 238 240 241 243 246 250 253
205 210 212 229 267 280 261 247 236 215 253 276 270 255 211 193 166 227 217 193 203 208 210 213 216 220 224 227 230 233 236 240 243 245 247 249 252 255
200 201 206 214 227 259 277 263 243 226 229 264 301 294 242 209 202 233 249 234 215 208 210 213 216 220 223 227 229 232 234 237 241 245 249 252 255 259
193 195 205 221 233 238 246 276 291 280 232 234 257 265 259 248 230 247 259 269 262 232 210 212 219 223 226 229 231 230 230 233 237 241 246 250 254 257
185 192 199 219 229 238 237 255 273 290 296 285 275 274 272 279 261 277 286 290 283 281 262 213 217 224 229 230 229 227 228 231 235 238 243 248 252 256
153 165 162 157 134 195 246 254 272 285 300 293 287 304 315 344 344 311 292 299 299 302 325 284 231 229 226 230 230 227 226 228 231 235 240 246 253 258
126 132 117 94 113 133 129 98 87 168 294 307 307 309 321 346 346 329 330 326 308 318 327 297 270 247 242 221 214 217 222 226 231 237 243 248 252 256
93 82 16 30 44 6 169 156 108 102 185 280 320 321 337 352 342 328 319 309 285 286 288 280 287 282 275 254 213 220 224 227 231 235 240 245 250 254
70 69 70 51 22 7 5 48 64 36 245 207 47 330 343 344 333 313 300 298 289 295 311 289 307 310 315 289 253 234 231 233 236 241 245 249 252 256
71 62 64 60 30 25 35 42 41 42 69 86 136 239 294 318 333 336 332 323 314 319 351 331 324 322 317 314 309 275 262 255 255 256 259 262 262 266
79 70 60 54 37 27 31 36 31 4 356 344 294 274 275 304 315 338 351 343 333 328 0 353 337 337 316 314 327 303 278 270 268 267 268 269 271 270
75 70 58 53 48 40 39 39 20 337 321 327 359 25 29 33 37 28 27 12 348 323 333 344 329 327 310 309 309 304 305 304 294 284 275 274 270 257
75 75 73 62 56 47 45 28 14 1 1 28 40 37 33 31 17 7 8 359 317 290 293 300 295 307 310 306 303 304 309 307 306 302 300 300 285 274
77 87 84 66 52 48 44 24 20 26 25 30 26 23 19 13 355 349 347 331 305 294 298 287 288 305 304 300 304 310 313 307 297 300 305 304 301 301
73 82 75 43 26 30 36 38 42 39 30 28 20 12 6 2 0 353 344 339 330 320 324 335 323 311 296 292 295 298 303 304 313 314 313 307 307 303
35 64 68 62 56 51 47 46 42 37 31 18 12 11 6 0 353 351 348 342 337 335 339 337 327 313 295 293 302 309 315 315 319 321 319 312 305 303
45 57 54 46 42 41 39 37 38 34 19 12 13 12 3 354 348 345 342 344 342 338 336 334 335 331 326 316 312 318 319 317 314 310 309 309 308 313
57 59 56 48 40 36 34 29 25 27 19 10 6 2 355 353 353 352 352 351 346 338 333 333 340 341 333 327 325 322 311 307 309 310 310 306 303 304
58 57 54 49 43 35 30 23 19 21 18 6 5 4 -0 356 356 353 352 351 339 332 332 336 342 341 324 310 303 303 304 307 310 308 308 306 301 298
56 51 47 45 39 33 26 20 21 23 17 9 13 6 2 358 355 350 345 343 337 334 335 330 321 309 294 294 299 305 316 320 311 299 303 307 308 309
49 50 47 44 39 29 26 20 19 23 18 13 9 2 0 358 351 345 344 342 340 337 331 321 318 317 315 314 313 314 320 324 320 309 291 279 296 307
44 39 46 43 37 27 23 21 22 22 16 7 0 353 351 347 339 338 339 340 337 334 331 327 326 323 320 318 318 321 326 328 326 327 330 333 314 294